Ludington, MI

10:23 AM EST on February 27, 2017 (GMT -0500)
Mason County

Weather History for KLDM - February, 2013

Change the Weather History Date:

Monday, February 18, 2013

  Actual Average Record
Temperature  
Mean Temperature 32 °F -  
Max Temperature 43 °F 33 °F 51 °F (2017)
Min Temperature 20 °F 18 °F -8 °F (1979)
Degree Days  
Heating Degree Days 34    
Moisture  
Dew Point 20 °F    
Average Humidity 61    
Maximum Humidity 88    
Minimum Humidity 52    
Precipitation  
Precipitation 0.18 in - - ()
Sea Level Pressure  
Sea Level Pressure 29.75 in    
Wind  
Wind Speed 11 mph (SSE)    
Max Wind Speed 23 mph    
Max Gust Speed 36 mph    
Visibility 10 miles    
Events Rain    
Averages and records for this station are not official NWS values.
T = Trace of Precipitation, MM = Missing Value Source: NWS Daily Summary

Daily Weather History Graph

Daily Weather History Graph

Search for Another Location

Airport or City:

Trip Planner

Search our weather history database for the weather conditions in past years. The results will help you decide how hot, cold, wet, or windy it might be!

Date:

Astronomy

Feb. 18, 2013 Rise Set
Actual Time 7:39 AM EST 6:19 PM EST
Civil Twilight 7:10 AM EST 6:49 PM EST
Nautical Twilight 6:36 AM EST 7:22 PM EST
Astronomical Twilight 6:03 AM EST 7:56 PM EST
Moon 11:59 AM EST (2/18) 2:24 AM EST (2/18)
Length of Visible Light 11h 38m
Length of Day
10h 40m
First Quarter, 58% of the Moon is Illuminated
Feb 18
First Quarter
Feb 25
Full
Mar 4
Last Quarter
Mar 11
New
Mar 19
First Quarter

Hourly Weather History & Observations

Time (EST) Temp. Windchill Dew Point Humidity Pressure Visibility Wind Dir Wind Speed Gust Speed Precip Events Conditions
12:15 AM 20.3 °F 9.8 °F 10.0 °F 65% 30.06 in 10.0 mi SSE 9.2 mph - N/A   Scattered Clouds
12:34 AM 20.3 °F 10.6 °F 9.7 °F 64% 30.06 in 10.0 mi SSE 8.1 mph - N/A   Mostly Cloudy
1:15 AM 21.4 °F 11.1 °F 10.4 °F 63% 30.05 in 10.0 mi SSE 9.2 mph - N/A   Overcast
1:34 AM 21.6 °F 11.3 °F 10.6 °F 63% 30.04 in 10.0 mi SSE 9.2 mph - N/A   Overcast
1:55 AM 21.6 °F 13.0 °F 10.8 °F 63% 30.04 in 10.0 mi SSE 6.9 mph - N/A   Mostly Cloudy
2:15 AM 21.6 °F 12.1 °F 10.6 °F 63% 30.04 in 10.0 mi SE 8.1 mph - N/A   Mostly Cloudy
2:34 AM 22.1 °F 12.0 °F 11.7 °F 64% 30.02 in 10.0 mi SE 9.2 mph - N/A   Overcast
2:55 AM 22.8 °F 13.6 °F 12.0 °F 63% 30.00 in 10.0 mi SE 8.1 mph - N/A   Overcast
3:15 AM 22.8 °F 12.9 °F 11.3 °F 61% 30.00 in 10.0 mi SSE 9.2 mph 16.1 mph N/A   Overcast
3:34 AM 22.8 °F 12.9 °F 11.3 °F 61% 30.00 in 10.0 mi SSE 9.2 mph - N/A   Overcast
3:55 AM 22.8 °F 12.9 °F 10.9 °F 60% 29.99 in 10.0 mi SE 9.2 mph - N/A   Overcast
4:15 AM 22.8 °F 12.9 °F 10.9 °F 60% 29.97 in 10.0 mi SE 9.2 mph - N/A   Overcast
4:34 AM 23.4 °F 13.5 °F 10.9 °F 59% 29.96 in 10.0 mi SE 9.2 mph - N/A   Overcast
4:55 AM 23.5 °F 12.4 °F 11.1 °F 59% 29.93 in 10.0 mi SE 11.5 mph - N/A   Overcast
5:15 AM 23.5 °F 11.8 °F 11.1 °F 59% 29.91 in 10.0 mi SE 12.7 mph 17.3 mph N/A   Overcast
5:35 AM 23.7 °F 12.1 °F 11.1 °F 59% 29.90 in 10.0 mi SE 12.7 mph 16.1 mph N/A   Mostly Cloudy
5:55 AM 24.3 °F 12.7 °F 11.5 °F 58% 29.88 in 10.0 mi SE 12.7 mph - N/A   Mostly Cloudy
6:14 AM 23.7 °F 12.1 °F 11.1 °F 59% 29.86 in 10.0 mi SE 12.7 mph 16.1 mph N/A   Mostly Cloudy
6:35 AM 23.9 °F 12.3 °F 11.3 °F 59% 29.85 in 10.0 mi SE 12.7 mph 19.6 mph N/A   Scattered Clouds
6:55 AM 23.9 °F 13.5 °F 10.9 °F 58% 29.85 in 10.0 mi SE 10.4 mph 17.3 mph N/A   Clear
7:15 AM 25.3 °F 16.0 °F 12.0 °F 57% 29.84 in 10.0 mi SE 9.2 mph - N/A   Clear
7:35 AM 25.3 °F 14.1 °F 11.7 °F 56% 29.84 in 10.0 mi SSE 12.7 mph 17.3 mph N/A   Clear
7:54 AM 26.8 °F 16.5 °F 12.9 °F 56% 29.82 in 10.0 mi SSE 11.5 mph 19.6 mph N/A   Clear
8:15 AM 27.9 °F 18.4 °F 13.5 °F 55% 29.81 in 10.0 mi SSE 10.4 mph 20.7 mph N/A   Clear
8:35 AM 27.9 °F 16.3 °F 13.6 °F 55% 29.81 in 10.0 mi SE 15.0 mph 20.7 mph N/A   Clear
9:15 AM 30.2 °F 20.2 °F 15.4 °F 54% 29.79 in 10.0 mi SSE 12.7 mph 20.7 mph N/A   Clear
9:35 AM 30.2 °F 21.3 °F 15.3 °F 54% 29.79 in 10.0 mi SSE 10.4 mph 17.3 mph N/A   Clear
9:54 AM 30.2 °F 19.8 °F 15.3 °F 54% 29.78 in 10.0 mi South 13.8 mph 18.4 mph N/A   Clear
10:15 AM 31.6 °F 22.6 °F 16.2 °F 53% 29.77 in 10.0 mi SSE 11.5 mph 18.4 mph N/A   Clear
10:35 AM 32.5 °F 24.2 °F 17.2 °F 53% 29.76 in 10.0 mi SSE 10.4 mph 19.6 mph N/A   Clear
10:54 AM 35.1 °F 25.5 °F 19.4 °F 53% 29.75 in 10.0 mi South 15.0 mph - N/A   Clear
11:15 AM 35.1 °F 25.5 °F 19.4 °F 53% 29.74 in 10.0 mi SSE 15.0 mph 19.6 mph N/A   Clear
11:35 AM 35.1 °F 25.5 °F 19.0 °F 52% 29.73 in 10.0 mi SSE 15.0 mph 19.6 mph N/A   Clear
11:55 AM 37.4 °F 28.5 °F 21.2 °F 52% 29.73 in 10.0 mi SSE 15.0 mph - N/A   Clear
12:15 PM 37.6 °F 31.6 °F 21.7 °F 53% 29.72 in 10.0 mi South 8.1 mph 18.4 mph N/A   Clear
12:34 PM 38.1 °F 29.8 °F 22.5 °F 53% 29.70 in 10.0 mi South 13.8 mph 23.0 mph N/A   Clear
12:55 PM 40.1 °F 31.6 °F 24.4 °F 54% 29.68 in 10.0 mi SSE 16.1 mph 21.9 mph N/A   Clear
1:15 PM 40.1 °F 33.6 °F 23.9 °F 52% 29.68 in 10.0 mi South 10.4 mph 19.6 mph N/A   Clear
1:34 PM 40.6 °F 33.8 °F 24.8 °F 53% 29.67 in 10.0 mi South 11.5 mph 23.0 mph N/A   Clear
1:55 PM 42.3 °F 35.9 °F 25.9 °F 52% 29.66 in 10.0 mi South 11.5 mph 20.7 mph N/A   Clear
2:15 PM 42.8 °F 35.4 °F 26.4 °F 52% 29.64 in 10.0 mi SSE 15.0 mph 19.6 mph N/A   Clear
2:34 PM 43.0 °F 34.8 °F 27.3 °F 54% 29.63 in 10.0 mi South 18.4 mph 23.0 mph N/A   Clear
2:55 PM 43.2 °F 35.6 °F 28.0 °F 55% 29.62 in 10.0 mi South 16.1 mph 21.9 mph N/A   Clear
3:15 PM 43.9 °F 36.5 °F 28.4 °F 55% 29.62 in 10.0 mi South 16.1 mph 27.6 mph N/A   Clear
3:34 PM 43.3 °F 38.6 °F 27.9 °F 54% 29.61 in 10.0 mi SSE 8.1 mph - N/A   Scattered Clouds
3:55 PM 42.8 °F 38.0 °F 27.3 °F 54% 29.60 in 10.0 mi SSE 8.1 mph - N/A   Scattered Clouds
4:15 PM 41.9 °F 36.3 °F 26.6 °F 55% 29.60 in 10.0 mi SSE 9.2 mph - N/A   Mostly Cloudy
4:34 PM 41.4 °F 36.8 °F 26.6 °F 56% 29.59 in 10.0 mi SSE 6.9 mph - N/A   Overcast
4:55 PM 41.4 °F 36.2 °F 27.0 °F 57% 29.59 in 10.0 mi SSE 8.1 mph - N/A   Overcast
5:15 PM 41.4 °F 36.2 °F 27.5 °F 58% 29.58 in 10.0 mi SSE 8.1 mph - N/A   Overcast
5:34 PM 41.4 °F 36.2 °F 27.7 °F 58% 29.57 in 10.0 mi SSE 8.1 mph - N/A   Overcast
6:15 PM 41.4 °F 35.7 °F 28.4 °F 60% 29.55 in 10.0 mi SSE 9.2 mph 16.1 mph N/A   Overcast
6:34 PM 40.8 °F 34.5 °F 30.4 °F 66% 29.54 in 10.0 mi SE 10.4 mph 18.4 mph N/A Rain Rain
6:55 PM 40.6 °F 34.8 °F 31.6 °F 70% 29.54 in 10.0 mi SSE 9.2 mph 17.3 mph N/A   Overcast
7:15 PM 41.4 °F 34.3 °F 32.2 °F 70% 29.53 in 10.0 mi SE 12.7 mph 16.1 mph N/A Rain Light Rain
7:35 PM 40.8 °F 33.7 °F 33.6 °F 76% 29.52 in 10.0 mi SSE 12.7 mph - N/A Rain Light Rain
7:55 PM 40.1 °F 34.1 °F 35.2 °F 83% 29.51 in 10.0 mi SSE 9.2 mph - 0.01 in Rain Light Rain
8:14 PM 40.1 °F 32.7 °F 36.1 °F 86% 29.49 in 5.0 mi SE 12.7 mph - 0.01 in Rain Light Rain
8:35 PM 40.5 °F 33.6 °F 36.9 °F 87% 29.48 in 5.0 mi SSE 11.5 mph 17.3 mph 0.02 in Rain Light Rain
8:45 PM 40.5 °F 34.1 °F 37.0 °F 88% 29.47 in 5.0 mi SSE 10.4 mph 17.3 mph 0.02 in Rain Light Rain
10:17 PM 42.8 °F 34.5 °F 39.2 °F 87% 29.42 in 4.0 mi South 18.4 mph 32.2 mph 0.04 in Rain Rain
10:39 PM - - - N/A% - 5.0 mi South 20.7 mph 35.7 mph N/A   Unknown
10:57 PM 42.8 °F 33.5 °F 39.2 °F 87% 29.38 in 5.0 mi South 23.0 mph 32.2 mph 0.15 in Rain Rain